Time,TemperatureF,DewpointF,PressureIn,WindDirection,WindDirectionDegrees,WindSpeedMPH,WindSpeedGustMPH,Humidity,HourlyPrecipIn,Conditions,Clouds,dailyrainin,SoftwareType,DateUTC
2013-04-23 00:00:00,53.2,47.5,30.10,SSW,196,1.0,1.0,81,0.00,,,0.00,Wunderground v.1.15,2013-04-23 05:00:00,
2013-04-23 00:05:00,53.0,47.3,30.10,SSW,202,0.0,1.0,81,0.00,,,0.00,Wunderground v.1.15,2013-04-23 05:05:00,
2013-04-23 00:15:00,53.1,47.4,30.10,West,277,1.0,3.0,81,0.00,,,0.00,Wunderground v.1.15,2013-04-23 05:15:00,
2013-04-23 00:20:00,53.3,47.3,30.10,SW,218,1.0,1.0,80,0.00,,,0.00,Wunderground v.1.15,2013-04-23 05:20:00,
2013-04-23 00:25:00,53.4,47.4,30.10,SSW,212,0.0,1.0,80,0.00,,,0.00,Wunderground v.1.15,2013-04-23 05:25:00,
2013-04-23 00:35:00,53.4,47.0,30.10,South,188,0.0,0.0,79,0.00,,,0.00,Wunderground v.1.15,2013-04-23 05:35:00,
2013-04-23 00:40:00,53.4,47.4,30.10,SSW,211,0.0,0.0,80,0.00,,,0.00,Wunderground v.1.15,2013-04-23 05:40:00,
2013-04-23 00:50:00,53.1,47.7,30.10,SSW,210,0.0,2.0,82,0.00,,,0.01,Wunderground v.1.15,2013-04-23 05:50:00,
2013-04-23 01:00:00,52.6,47.9,30.08,SSW,210,0.0,0.0,84,0.06,,,0.02,Wunderground v.1.15,2013-04-23 06:00:00,
2013-04-23 01:05:00,52.2,47.8,30.08,SSW,210,0.0,0.0,85,0.06,,,0.02,Wunderground v.1.15,2013-04-23 06:05:00,
2013-04-23 01:15:00,51.8,47.7,30.07,SSW,210,0.0,0.0,86,0.05,,,0.03,Wunderground v.1.15,2013-04-23 06:15:00,
2013-04-23 01:20:00,51.6,47.9,30.07,SSW,210,0.0,0.0,87,0.05,,,0.03,Wunderground v.1.15,2013-04-23 06:20:00,
2013-04-23 01:25:00,51.4,48.0,30.06,SSW,210,0.0,0.0,88,0.04,,,0.03,Wunderground v.1.15,2013-04-23 06:25:00,
2013-04-23 01:35:00,50.9,47.5,30.05,SSW,210,0.0,0.0,88,0.00,,,0.03,Wunderground v.1.15,2013-04-23 06:35:00,
2013-04-23 01:40:00,50.8,47.7,30.05,SSW,210,0.0,0.0,89,0.00,,,0.03,Wunderground v.1.15,2013-04-23 06:40:00,
2013-04-23 01:45:00,50.5,47.4,30.05,SSW,210,0.0,0.0,89,0.00,,,0.03,Wunderground v.1.15,2013-04-23 06:45:00,
2013-04-23 01:50:00,50.1,47.3,30.04,SSW,210,0.0,0.0,90,0.00,,,0.03,Wunderground v.1.15,2013-04-23 06:50:00,
2013-04-23 02:00:00,49.5,47.0,30.04,SSW,210,0.0,0.0,91,0.00,,,0.03,Wunderground v.1.15,2013-04-23 07:00:00,
2013-04-23 02:05:00,49.2,46.7,30.03,SSW,210,0.0,0.0,91,0.00,,,0.03,Wunderground v.1.15,2013-04-23 07:05:00,
2013-04-23 02:15:00,48.6,46.1,30.02,SSW,210,0.0,0.0,91,0.00,,,0.03,Wunderground v.1.15,2013-04-23 07:15:00,
2013-04-23 02:25:00,47.8,45.6,30.03,SSW,210,0.0,0.0,92,0.00,,,0.03,Wunderground v.1.15,2013-04-23 07:25:00,
2013-04-23 02:30:00,47.7,45.5,30.04,SSW,210,0.0,0.0,92,0.00,,,0.03,Wunderground v.1.15,2013-04-23 07:30:00,
2013-04-23 02:40:00,47.8,45.9,30.04,SSW,210,0.0,0.0,93,0.00,,,0.03,Wunderground v.1.15,2013-04-23 07:40:00,
2013-04-23 02:50:00,47.8,45.9,30.04,SSW,210,0.0,0.0,93,0.00,,,0.03,Wunderground v.1.15,2013-04-23 07:50:00,
2013-04-23 02:55:00,47.8,45.9,30.04,SSW,210,0.0,0.0,93,0.00,,,0.03,Wunderground v.1.15,2013-04-23 07:55:00,
2013-04-23 03:00:00,47.7,45.8,30.04,SSW,210,0.0,0.0,93,0.00,,,0.03,Wunderground v.1.15,2013-04-23 08:00:00,
2013-04-23 03:05:00,47.9,46.0,30.04,SSW,210,0.0,0.0,93,0.00,,,0.03,Wunderground v.1.15,2013-04-23 08:05:00,
2013-04-23 03:15:00,48.0,46.4,30.04,SSW,210,0.0,0.0,94,0.00,,,0.03,Wunderground v.1.15,2013-04-23 08:15:00,
2013-04-23 03:25:00,48.1,46.5,30.03,SSW,210,0.0,0.0,94,0.00,,,0.03,Wunderground v.1.15,2013-04-23 08:25:00,
2013-04-23 03:35:00,47.9,46.3,30.03,SSW,210,0.0,0.0,94,0.00,,,0.03,Wunderground v.1.15,2013-04-23 08:35:00,
2013-04-23 03:40:00,47.9,46.3,30.03,SSW,210,0.0,0.0,94,0.00,,,0.03,Wunderground v.1.15,2013-04-23 08:40:00,
2013-04-23 03:50:00,48.1,46.5,30.02,SSW,210,0.0,0.0,94,0.00,,,0.03,Wunderground v.1.15,2013-04-23 08:50:00,
2013-04-23 03:55:00,48.1,46.5,30.01,SSW,210,0.0,0.0,94,0.00,,,0.03,Wunderground v.1.15,2013-04-23 08:55:00,
2013-04-23 04:05:00,48.0,46.4,30.02,SSW,210,0.0,0.0,94,0.00,,,0.03,Wunderground v.1.15,2013-04-23 09:05:00,
2013-04-23 04:15:00,47.7,46.1,30.02,SSW,210,0.0,0.0,94,0.00,,,0.03,Wunderground v.1.15,2013-04-23 09:15:00,
2013-04-23 04:25:00,47.6,46.0,30.02,SSW,210,0.0,0.0,94,0.00,,,0.03,Wunderground v.1.15,2013-04-23 09:25:00,
2013-04-23 04:30:00,47.6,46.2,30.03,SSW,210,0.0,0.0,95,0.00,,,0.03,Wunderground v.1.15,2013-04-23 09:30:00,
2013-04-23 04:35:00,47.5,46.1,30.02,SSW,210,0.0,0.0,95,0.00,,,0.03,Wunderground v.1.15,2013-04-23 09:35:00,
2013-04-23 04:45:00,48.0,46.6,30.01,SSW,210,0.0,0.0,95,0.00,,,0.03,Wunderground v.1.15,2013-04-23 09:45:00,
2013-04-23 04:50:00,48.1,46.7,30.00,SSW,210,0.0,0.0,95,0.00,,,0.03,Wunderground v.1.15,2013-04-23 09:50:00,
2013-04-23 04:55:00,48.1,46.7,30.00,SSW,210,0.0,0.0,95,0.00,,,0.03,Wunderground v.1.15,2013-04-23 09:55:00,
2013-04-23 05:00:00,48.0,46.6,30.01,SSW,210,0.0,0.0,95,0.00,,,0.03,Wunderground v.1.15,2013-04-23 10:00:00,
2013-04-23 05:05:00,48.1,46.7,30.02,SSW,210,0.0,0.0,95,0.00,,,0.03,Wunderground v.1.15,2013-04-23 10:05:00,
2013-04-23 05:15:00,48.3,46.9,30.02,SSW,210,0.0,0.0,95,0.00,,,0.03,Wunderground v.1.15,2013-04-23 10:15:00,
2013-04-23 05:20:00,48.2,46.8,30.01,SSW,210,0.0,0.0,95,0.00,,,0.03,Wunderground v.1.15,2013-04-23 10:20:00,
2013-04-23 05:25:00,48.1,46.7,30.02,SSW,210,0.0,0.0,95,0.00,,,0.03,Wunderground v.1.15,2013-04-23 10:25:00,
2013-04-23 05:35:00,48.0,46.6,30.02,SSW,210,0.0,0.0,95,0.00,,,0.03,Wunderground v.1.15,2013-04-23 10:35:00,
2013-04-23 05:40:00,48.0,46.6,30.03,SSW,210,0.0,0.0,95,0.00,,,0.03,Wunderground v.1.15,2013-04-23 10:40:00,
2013-04-23 05:45:00,48.1,46.7,30.03,SSW,210,0.0,0.0,95,0.00,,,0.03,Wunderground v.1.15,2013-04-23 10:45:00,
2013-04-23 05:50:00,48.1,46.7,30.03,SSW,210,0.0,0.0,95,0.00,,,0.03,Wunderground v.1.15,2013-04-23 10:50:00,
2013-04-23 05:55:00,48.2,46.8,30.03,SSW,210,0.0,0.0,95,0.00,,,0.03,Wunderground v.1.15,2013-04-23 10:55:00,
2013-04-23 06:00:00,48.2,46.8,30.03,SSW,210,0.0,0.0,95,0.00,,,0.03,Wunderground v.1.15,2013-04-23 11:00:00,
2013-04-23 06:05:00,48.3,46.9,30.03,West,270,0.0,2.0,95,0.00,,,0.03,Wunderground v.1.15,2013-04-23 11:05:00,
2013-04-23 06:15:00,48.3,46.9,30.03,NW,324,4.0,8.0,95,0.00,,,0.03,Wunderground v.1.15,2013-04-23 11:15:00,
2013-04-23 06:20:00,47.9,46.3,30.02,WNW,302,5.0,5.0,94,0.00,,,0.03,Wunderground v.1.15,2013-04-23 11:20:00,
2013-04-23 06:25:00,47.6,46.0,30.03,WNW,291,5.0,5.0,94,0.00,,,0.03,Wunderground v.1.15,2013-04-23 11:25:00,
2013-04-23 06:35:00,46.7,44.8,30.02,NNW,336,3.0,4.0,93,0.00,,,0.03,Wunderground v.1.15,2013-04-23 11:35:00,
2013-04-23 06:40:00,46.4,44.5,30.02,NW,319,2.0,2.0,93,0.00,,,0.03,Wunderground v.1.15,2013-04-23 11:40:00,
2013-04-23 06:45:00,46.0,44.1,30.02,NNW,331,3.0,3.0,93,0.00,,,0.03,Wunderground v.1.15,2013-04-23 11:45:00,
2013-04-23 06:50:00,45.4,43.2,30.03,West,271,3.0,6.0,92,0.00,,,0.03,Wunderground v.1.15,2013-04-23 11:50:00,
2013-04-23 07:00:00,44.6,42.1,30.02,West,281,4.0,4.0,91,0.00,,,0.03,Wunderground v.1.15,2013-04-23 12:00:00,
2013-04-23 07:05:00,44.4,41.9,30.02,West,267,4.0,4.0,91,0.00,,,0.03,Wunderground v.1.15,2013-04-23 12:05:00,
2013-04-23 07:15:00,44.2,41.7,30.02,NW,321,4.0,6.0,91,0.00,,,0.03,Wunderground v.1.15,2013-04-23 12:15:00,
2013-04-23 07:20:00,44.2,41.7,30.02,NNW,336,4.0,4.0,91,0.00,,,0.03,Wunderground v.1.15,2013-04-23 12:20:00,
2013-04-23 07:25:00,44.1,41.6,30.03,NNW,330,3.0,4.0,91,0.00,,,0.03,Wunderground v.1.15,2013-04-23 12:25:00,
2013-04-23 07:30:00,44.0,41.5,30.03,NNW,338,4.0,7.0,91,0.00,,,0.03,Wunderground v.1.15,2013-04-23 12:30:00,
2013-04-23 07:35:00,43.9,41.4,30.03,NNW,329,5.0,7.0,91,0.00,,,0.03,Wunderground v.1.15,2013-04-23 12:35:00,
2013-04-23 07:40:00,43.8,41.3,30.03,NW,319,5.0,5.0,91,0.00,,,0.03,Wunderground v.1.15,2013-04-23 12:40:00,
2013-04-23 07:45:00,43.6,40.9,30.04,NW,318,6.0,6.0,90,0.00,,,0.03,Wunderground v.1.15,2013-04-23 12:45:00,
2013-04-23 07:55:00,43.3,40.6,30.04,NNW,330,6.0,7.0,90,0.00,,,0.03,Wunderground v.1.15,2013-04-23 12:55:00,
2013-04-23 08:00:00,43.2,40.5,30.04,NNW,329,6.0,6.0,90,0.00,,,0.03,Wunderground v.1.15,2013-04-23 13:00:00,
2013-04-23 08:05:00,43.0,40.3,30.04,NNW,334,6.0,6.0,90,0.00,,,0.03,Wunderground v.1.15,2013-04-23 13:05:00,
2013-04-23 08:15:00,41.9,38.6,30.05,North,360,7.0,8.0,88,0.00,,,0.03,Wunderground v.1.15,2013-04-23 13:15:00,
2013-04-23 08:20:00,41.5,37.9,30.04,NNW,342,7.0,7.0,87,0.00,,,0.03,Wunderground v.1.15,2013-04-23 13:20:00,
2013-04-23 08:25:00,41.2,37.6,30.04,NW,319,6.0,7.0,87,0.00,,,0.03,Wunderground v.1.15,2013-04-23 13:25:00,
2013-04-23 08:30:00,41.0,37.4,30.03,NW,313,7.0,7.0,87,0.00,,,0.03,Wunderground v.1.15,2013-04-23 13:30:00,
2013-04-23 08:35:00,41.0,37.4,30.04,NNW,327,7.0,10.0,87,0.00,,,0.03,Wunderground v.1.15,2013-04-23 13:35:00,
2013-04-23 08:40:00,40.7,37.1,30.04,NNW,336,8.0,8.0,87,0.00,,,0.03,Wunderground v.1.15,2013-04-23 13:40:00,
2013-04-23 08:45:00,40.5,36.9,30.04,NNW,334,9.0,9.0,87,0.00,,,0.03,Wunderground v.1.15,2013-04-23 13:45:00,
2013-04-23 08:55:00,40.5,37.2,30.04,NNW,327,6.0,7.0,88,0.00,,,0.03,Wunderground v.1.15,2013-04-23 13:55:00,
2013-04-23 09:00:00,40.6,37.3,30.04,NW,322,5.0,7.0,88,0.00,,,0.03,Wunderground v.1.15,2013-04-23 14:00:00,
2013-04-23 09:05:00,40.4,36.8,30.04,NW,313,5.0,7.0,87,0.00,,,0.03,Wunderground v.1.15,2013-04-23 14:05:00,
2013-04-23 09:15:00,40.4,36.8,30.05,WNW,300,5.0,8.0,87,0.00,,,0.03,Wunderground v.1.15,2013-04-23 14:15:00,
2013-04-23 09:20:00,40.3,36.7,30.05,NNW,331,6.0,8.0,87,0.00,,,0.03,Wunderground v.1.15,2013-04-23 14:20:00,
2013-04-23 09:25:00,40.1,36.5,30.05,NW,317,6.0,8.0,87,0.00,,,0.03,Wunderground v.1.15,2013-04-23 14:25:00,
2013-04-23 09:30:00,39.8,36.2,30.06,NW,308,5.0,5.0,87,0.00,,,0.03,Wunderground v.1.15,2013-04-23 14:30:00,
2013-04-23 09:35:00,39.6,36.3,30.06,NNW,342,5.0,6.0,88,0.00,,,0.03,Wunderground v.1.15,2013-04-23 14:35:00,
2013-04-23 09:40:00,39.3,36.0,30.06,NNW,333,5.0,5.0,88,0.00,,,0.04,Wunderground v.1.15,2013-04-23 14:40:00,
2013-04-23 09:45:00,39.1,36.1,30.06,NNW,343,5.0,5.0,89,0.00,,,0.04,Wunderground v.1.15,2013-04-23 14:45:00,
2013-04-23 09:55:00,38.7,35.7,30.06,NNW,340,6.0,7.0,89,0.05,,,0.05,Wunderground v.1.15,2013-04-23 14:55:00,
2013-04-23 10:00:00,38.5,35.8,30.07,NW,323,6.0,6.0,90,0.05,,,0.05,Wunderground v.1.15,2013-04-23 15:00:00,
2013-04-23 10:05:00,38.3,35.6,30.07,NNW,336,7.0,7.0,90,0.05,,,0.06,Wunderground v.1.15,2013-04-23 15:05:00,
2013-04-23 10:15:00,38.3,35.9,30.07,NNW,344,5.0,7.0,91,0.07,,,0.07,Wunderground v.1.15,2013-04-23 15:15:00,
2013-04-23 10:20:00,38.0,35.6,30.07,NW,304,6.0,6.0,91,0.07,,,0.08,Wunderground v.1.15,2013-04-23 15:20:00,
2013-04-23 10:25:00,37.9,35.5,30.08,NNW,340,7.0,7.0,91,0.07,,,0.08,Wunderground v.1.15,2013-04-23 15:25:00,
2013-04-23 10:35:00,37.7,35.6,30.08,NW,326,5.0,7.0,92,0.06,,,0.09,Wunderground v.1.15,2013-04-23 15:35:00,
2013-04-23 10:45:00,37.6,35.5,30.08,NNW,344,4.0,9.0,92,0.05,,,0.10,Wunderground v.1.15,2013-04-23 15:45:00,
2013-04-23 10:55:00,37.5,35.4,30.08,NNW,330,4.0,5.0,92,0.08,,,0.11,Wunderground v.1.15,2013-04-23 15:55:00,
2013-04-23 11:00:00,37.5,35.4,30.07,NW,314,4.0,5.0,92,0.07,,,0.12,Wunderground v.1.15,2013-04-23 16:00:00,
2013-04-23 11:05:00,37.5,35.4,30.08,NNW,328,4.0,7.0,92,0.09,,,0.13,Wunderground v.1.15,2013-04-23 16:05:00,
2013-04-23 11:15:00,37.4,35.3,30.08,NW,325,6.0,7.0,92,0.05,,,0.14,Wunderground v.1.15,2013-04-23 16:15:00,
2013-04-23 11:20:00,37.3,35.5,30.08,NW,325,6.0,6.0,93,0.11,,,0.15,Wunderground v.1.15,2013-04-23 16:20:00,
2013-04-23 11:30:00,37.1,35.0,30.08,North,360,5.0,7.0,92,0.08,,,0.16,Wunderground v.1.15,2013-04-23 16:30:00,
2013-04-23 11:35:00,37.1,35.0,30.08,NNW,340,5.0,8.0,92,0.10,,,0.17,Wunderground v.1.15,2013-04-23 16:35:00,
2013-04-23 11:40:00,37.2,35.4,30.08,NNW,337,4.0,4.0,93,0.09,,,0.18,Wunderground v.1.15,2013-04-23 16:40:00,
2013-04-23 11:45:00,37.3,35.5,30.08,NNW,344,2.0,4.0,93,0.19,,,0.19,Wunderground v.1.15,2013-04-23 16:45:00,
2013-04-23 11:50:00,37.4,35.6,30.08,North,350,2.0,4.0,93,0.19,,,0.21,Wunderground v.1.15,2013-04-23 16:50:00,
2013-04-23 11:55:00,37.3,35.5,30.08,NNW,334,3.0,5.0,93,0.12,,,0.21,Wunderground v.1.15,2013-04-23 16:55:00,
2013-04-23 12:00:00,37.3,35.5,30.08,WNW,301,4.0,6.0,93,0.14,,,0.22,Wunderground v.1.15,2013-04-23 17:00:00,
2013-04-23 12:05:00,37.2,35.4,30.08,NW,326,5.0,6.0,93,0.11,,,0.23,Wunderground v.1.15,2013-04-23 17:05:00,
2013-04-23 12:15:00,37.3,35.5,30.08,NNW,346,4.0,6.0,93,0.12,,,0.25,Wunderground v.1.15,2013-04-23 17:15:00,
2013-04-23 12:20:00,37.5,35.9,30.08,NNW,330,3.0,3.0,94,0.10,,,0.26,Wunderground v.1.15,2013-04-23 17:20:00,
2013-04-23 12:30:00,37.5,35.9,30.07,NNE,31,3.0,7.0,94,0.16,,,0.29,Wunderground v.1.15,2013-04-23 17:30:00,
2013-04-23 12:35:00,37.3,35.7,30.07,NNW,338,5.0,7.0,94,0.09,,,0.29,Wunderground v.1.15,2013-04-23 17:35:00,
2013-04-23 12:40:00,37.3,35.7,30.07,NNW,331,6.0,6.0,94,0.05,,,0.29,Wunderground v.1.15,2013-04-23 17:40:00,
2013-04-23 12:45:00,37.4,35.8,30.07,WNW,301,4.0,7.0,94,0.05,,,0.30,Wunderground v.1.15,2013-04-23 17:45:00,
2013-04-23 12:50:00,37.5,35.9,30.07,NW,321,4.0,9.0,94,0.05,,,0.30,Wunderground v.1.15,2013-04-23 17:50:00,
2013-04-23 12:55:00,37.3,35.7,30.07,North,355,6.0,10.0,94,0.05,,,0.31,Wunderground v.1.15,2013-04-23 17:55:00,
2013-04-23 13:05:00,37.4,35.8,30.07,NW,321,6.0,6.0,94,0.04,,,0.31,Wunderground v.1.15,2013-04-23 18:05:00,
2013-04-23 13:15:00,37.8,36.2,30.07,NW,315,4.0,6.0,94,0.12,,,0.33,Wunderground v.1.15,2013-04-23 18:15:00,
2013-04-23 13:20:00,37.6,36.0,30.06,NNW,344,4.0,10.0,94,0.07,,,0.33,Wunderground v.1.15,2013-04-23 18:20:00,
2013-04-23 13:25:00,37.2,35.6,30.06,NW,320,6.0,10.0,94,0.04,,,0.33,Wunderground v.1.15,2013-04-23 18:25:00,
2013-04-23 13:30:00,37.2,35.6,30.06,North,9,6.0,6.0,94,0.00,,,0.33,Wunderground v.1.15,2013-04-23 18:30:00,
2013-04-23 13:40:00,36.6,35.0,30.06,NNW,334,6.0,6.0,94,0.00,,,0.33,Wunderground v.1.15,2013-04-23 18:40:00,
2013-04-23 13:45:00,36.6,35.0,30.06,NW,322,6.0,8.0,94,0.00,,,0.33,Wunderground v.1.15,2013-04-23 18:45:00,
2013-04-23 13:50:00,36.7,35.1,30.06,NNW,338,5.0,5.0,94,0.00,,,0.33,Wunderground v.1.15,2013-04-23 18:50:00,
2013-04-23 14:00:00,36.5,34.9,30.06,North,355,5.0,7.0,94,0.00,,,0.33,Wunderground v.1.15,2013-04-23 19:00:00,
2013-04-23 14:05:00,36.5,34.9,30.06,NW,315,5.0,7.0,94,0.00,,,0.33,Wunderground v.1.15,2013-04-23 19:05:00,
2013-04-23 14:15:00,36.5,34.9,30.06,NNW,327,4.0,5.0,94,0.00,,,0.34,Wunderground v.1.15,2013-04-23 19:15:00,
2013-04-23 15:05:00,36.8,35.2,30.06,North,349,3.0,5.0,94,0.00,,,0.36,Wunderground v.1.15,2013-04-23 20:05:00,
2013-04-23 15:15:00,37.0,35.4,30.06,NNW,335,5.0,5.0,94,0.00,,,0.36,Wunderground v.1.15,2013-04-23 20:15:00,
2013-04-23 15:20:00,37.0,35.4,30.05,NW,316,5.0,6.0,94,0.00,,,0.37,Wunderground v.1.15,2013-04-23 20:20:00,
2013-04-23 15:30:00,37.0,35.2,30.05,NNW,344,6.0,12.0,93,0.00,,,0.37,Wunderground v.1.15,2013-04-23 20:30:00,
2013-04-23 15:35:00,37.1,35.5,30.05,NNW,337,6.0,12.0,94,0.00,,,0.37,Wunderground v.1.15,2013-04-23 20:35:00,
2013-04-23 15:40:00,37.2,35.6,30.04,NNW,333,5.0,6.0,94,0.00,,,0.37,Wunderground v.1.15,2013-04-23 20:40:00,
2013-04-23 15:45:00,37.3,35.7,30.04,NW,324,5.0,6.0,94,0.00,,,0.37,Wunderground v.1.15,2013-04-23 20:45:00,
2013-04-23 15:50:00,37.5,35.7,30.05,NW,312,4.0,7.0,93,0.00,,,0.37,Wunderground v.1.15,2013-04-23 20:50:00,
2013-04-23 15:55:00,37.7,35.9,30.04,NW,323,4.0,10.0,93,0.00,,,0.37,Wunderground v.1.15,2013-04-23 20:55:00,
2013-04-23 16:05:00,38.0,36.2,30.05,NW,313,6.0,6.0,93,0.00,,,0.37,Wunderground v.1.15,2013-04-23 21:05:00,
2013-04-23 16:15:00,38.1,36.0,30.04,NNW,331,7.0,10.0,92,0.00,,,0.37,Wunderground v.1.15,2013-04-23 21:15:00,
2013-04-23 16:25:00,38.3,35.9,30.04,NW,322,5.0,7.0,91,0.00,,,0.37,Wunderground v.1.15,2013-04-23 21:25:00,
2013-04-23 16:30:00,38.5,36.1,30.04,NNW,340,5.0,8.0,91,0.00,,,0.37,Wunderground v.1.15,2013-04-23 21:30:00,
2013-04-23 16:35:00,38.5,36.1,30.03,NW,315,5.0,8.0,91,0.00,,,0.37,Wunderground v.1.15,2013-04-23 21:35:00,
2013-04-23 16:40:00,38.6,35.9,30.04,NW,313,6.0,6.0,90,0.00,,,0.38,Wunderground v.1.15,2013-04-23 21:40:00,
2013-04-23 16:45:00,38.6,35.9,30.04,NNW,329,6.0,7.0,90,0.00,,,0.38,Wunderground v.1.15,2013-04-23 21:45:00,
2013-04-23 16:50:00,38.7,35.7,30.04,NW,317,7.0,8.0,89,0.00,,,0.38,Wunderground v.1.15,2013-04-23 21:50:00,
2013-04-23 16:55:00,38.8,35.8,30.04,NNW,337,7.0,8.0,89,0.00,,,0.38,Wunderground v.1.15,2013-04-23 21:55:00,
2013-04-23 17:05:00,38.8,35.6,30.05,NNW,339,6.0,6.0,88,0.00,,,0.38,Wunderground v.1.15,2013-04-23 22:05:00,
2013-04-23 17:15:00,38.9,35.6,30.05,NW,323,5.0,9.0,88,0.00,,,0.38,Wunderground v.1.15,2013-04-23 22:15:00,
2013-04-23 17:25:00,39.1,35.6,30.05,NW,321,5.0,6.0,87,0.00,,,0.38,Wunderground v.1.15,2013-04-23 22:25:00,
2013-04-23 17:30:00,39.2,35.9,30.06,NNW,329,3.0,3.0,88,0.00,,,0.38,Wunderground v.1.15,2013-04-23 22:30:00,
2013-04-23 17:40:00,39.2,35.7,30.05,NW,314,3.0,5.0,87,0.00,,,0.38,Wunderground v.1.15,2013-04-23 22:40:00,
2013-04-23 17:45:00,39.0,35.5,30.06,NNW,332,5.0,8.0,87,0.00,,,0.38,Wunderground v.1.15,2013-04-23 22:45:00,
2013-04-23 17:50:00,38.9,35.4,30.06,NNW,330,5.0,5.0,87,0.00,,,0.38,Wunderground v.1.15,2013-04-23 22:50:00,
2013-04-23 17:55:00,38.9,35.6,30.06,NW,323,3.0,5.0,88,0.00,,,0.38,Wunderground v.1.15,2013-04-23 22:55:00,
2013-04-23 18:05:00,38.7,35.5,30.06,North,355,4.0,4.0,88,0.00,,,0.38,Wunderground v.1.15,2013-04-23 23:05:00,
2013-04-23 18:15:00,38.8,35.6,30.06,NW,325,3.0,4.0,88,0.00,,,0.38,Wunderground v.1.15,2013-04-23 23:15:00,
2013-04-23 18:20:00,38.7,35.5,30.06,NNW,331,3.0,3.0,88,0.00,,,0.38,Wunderground v.1.15,2013-04-23 23:20:00,
2013-04-23 18:25:00,38.8,35.6,30.06,NNW,334,2.0,3.0,88,0.00,,,0.38,Wunderground v.1.15,2013-04-23 23:25:00,
2013-04-23 18:30:00,38.8,35.6,30.05,NNW,328,1.0,3.0,88,0.00,,,0.38,Wunderground v.1.15,2013-04-23 23:30:00,
2013-04-23 18:40:00,38.8,35.3,30.06,North,355,3.0,3.0,87,0.00,,,0.39,Wunderground v.1.15,2013-04-23 23:40:00,
2013-04-23 18:50:00,38.9,35.4,30.06,NNW,333,2.0,2.0,87,0.00,,,0.39,Wunderground v.1.15,2013-04-23 23:50:00,
2013-04-23 18:55:00,38.9,35.4,30.06,NNW,338,2.0,2.0,87,0.00,,,0.39,Wunderground v.1.15,2013-04-23 23:55:00,
2013-04-23 19:00:00,39.0,35.5,30.06,NNW,341,1.0,2.0,87,0.00,,,0.39,Wunderground v.1.15,2013-04-24 00:00:00,
2013-04-23 19:05:00,38.9,35.1,30.06,NNW,334,2.0,2.0,86,0.00,,,0.39,Wunderground v.1.15,2013-04-24 00:05:00,
2013-04-23 19:15:00,39.0,35.2,30.06,NNW,332,2.0,2.0,86,0.00,,,0.39,Wunderground v.1.15,2013-04-24 00:15:00,
2013-04-23 19:20:00,38.9,35.1,30.06,NNW,340,3.0,7.0,86,0.00,,,0.39,Wunderground v.1.15,2013-04-24 00:20:00,
2013-04-23 19:25:00,39.0,35.2,30.06,NNW,328,4.0,7.0,86,0.00,,,0.39,Wunderground v.1.15,2013-04-24 00:25:00,
2013-04-23 19:35:00,39.0,35.2,30.06,NNW,335,2.0,3.0,86,0.00,,,0.39,Wunderground v.1.15,2013-04-24 00:35:00,
2013-04-23 19:40:00,38.9,35.1,30.07,NW,325,1.0,3.0,86,0.00,,,0.39,Wunderground v.1.15,2013-04-24 00:40:00,
2013-04-23 19:45:00,39.0,35.2,30.07,NNW,332,2.0,3.0,86,0.00,,,0.39,Wunderground v.1.15,2013-04-24 00:45:00,
2013-04-23 19:50:00,38.9,35.1,30.07,NNW,329,2.0,2.0,86,0.00,,,0.39,Wunderground v.1.15,2013-04-24 00:50:00,
2013-04-23 19:55:00,38.9,35.1,30.07,NW,325,1.0,4.0,86,0.00,,,0.39,Wunderground v.1.15,2013-04-24 00:55:00,
2013-04-23 20:00:00,38.9,35.1,30.08,NNW,336,1.0,1.0,86,0.00,,,0.39,Wunderground v.1.15,2013-04-24 01:00:00,
2013-04-23 20:05:00,38.9,35.1,30.08,North,350,1.0,1.0,86,0.00,,,0.39,Wunderground v.1.15,2013-04-24 01:05:00,
2013-04-23 20:15:00,38.9,34.8,30.08,NNW,331,1.0,1.0,85,0.00,,,0.39,Wunderground v.1.15,2013-04-24 01:15:00,
2013-04-23 20:20:00,38.9,34.8,30.07,NNW,328,1.0,4.0,85,0.00,,,0.39,Wunderground v.1.15,2013-04-24 01:20:00,
2013-04-23 20:30:00,38.9,34.5,30.07,NW,325,2.0,3.0,84,0.00,,,0.39,Wunderground v.1.15,2013-04-24 01:30:00,
2013-04-23 20:35:00,38.9,34.5,30.07,NNW,337,2.0,3.0,84,0.00,,,0.39,Wunderground v.1.15,2013-04-24 01:35:00,
2013-04-23 20:40:00,38.9,34.5,30.07,NNW,329,2.0,2.0,84,0.00,,,0.39,Wunderground v.1.15,2013-04-24 01:40:00,
2013-04-23 20:45:00,38.9,34.5,30.07,NNW,335,2.0,4.0,84,0.00,,,0.39,Wunderground v.1.15,2013-04-24 01:45:00,
2013-04-23 20:50:00,38.9,34.5,30.07,NNW,329,2.0,2.0,84,0.00,,,0.39,Wunderground v.1.15,2013-04-24 01:50:00,
2013-04-23 20:55:00,38.8,34.1,30.07,NNW,329,2.0,2.0,83,0.00,,,0.39,Wunderground v.1.15,2013-04-24 01:55:00,
2013-04-23 21:00:00,38.8,34.1,30.08,NNW,328,3.0,3.0,83,0.00,,,0.39,Wunderground v.1.15,2013-04-24 02:00:00,
2013-04-23 21:05:00,38.9,34.2,30.08,NW,325,3.0,3.0,83,0.00,,,0.39,Wunderground v.1.15,2013-04-24 02:05:00,
2013-04-23 21:15:00,38.8,34.1,30.08,North,355,3.0,5.0,83,0.00,,,0.39,Wunderground v.1.15,2013-04-24 02:15:00,
2013-04-23 21:20:00,38.8,34.1,30.08,North,355,3.0,4.0,83,0.00,,,0.39,Wunderground v.1.15,2013-04-24 02:20:00,
2013-04-23 21:30:00,38.7,34.0,30.08,NNW,336,4.0,4.0,83,0.00,,,0.39,Wunderground v.1.15,2013-04-24 02:30:00,
2013-04-23 21:35:00,38.7,34.0,30.08,NNW,331,3.0,4.0,83,0.00,,,0.39,Wunderground v.1.15,2013-04-24 02:35:00,
2013-04-23 21:40:00,38.7,34.0,30.08,NNW,340,3.0,4.0,83,0.00,,,0.39,Wunderground v.1.15,2013-04-24 02:40:00,
2013-04-23 21:50:00,38.6,33.9,30.08,NNW,345,2.0,2.0,83,0.00,,,0.39,Wunderground v.1.15,2013-04-24 02:50:00,
2013-04-23 21:55:00,38.5,33.8,30.08,NNW,334,2.0,6.0,83,0.00,,,0.39,Wunderground v.1.15,2013-04-24 02:55:00,
2013-04-23 22:00:00,38.5,33.5,30.08,NW,310,3.0,3.0,82,0.00,,,0.39,Wunderground v.1.15,2013-04-24 03:00:00,
2013-04-23 22:05:00,38.5,33.5,30.08,NNW,343,3.0,4.0,82,0.00,,,0.39,Wunderground v.1.15,2013-04-24 03:05:00,
2013-04-23 22:15:00,38.4,33.4,30.09,NNW,336,3.0,3.0,82,0.00,,,0.39,Wunderground v.1.15,2013-04-24 03:15:00,
2013-04-23 22:20:00,38.4,33.4,30.09,NNW,341,3.0,3.0,82,0.00,,,0.39,Wunderground v.1.15,2013-04-24 03:20:00,
2013-04-23 22:30:00,38.4,33.4,30.09,NNW,346,3.0,3.0,82,0.00,,,0.39,Wunderground v.1.15,2013-04-24 03:30:00,
2013-04-23 22:35:00,38.4,33.1,30.08,North,350,3.0,3.0,81,0.00,,,0.39,Wunderground v.1.15,2013-04-24 03:35:00,
2013-04-23 22:40:00,38.4,33.1,30.08,NNW,338,4.0,6.0,81,0.00,,,0.39,Wunderground v.1.15,2013-04-24 03:40:00,
2013-04-23 22:50:00,38.4,33.1,30.09,NNW,337,3.0,3.0,81,0.00,,,0.39,Wunderground v.1.15,2013-04-24 03:50:00,
2013-04-23 22:55:00,38.4,33.1,30.08,NNW,334,3.0,4.0,81,0.00,,,0.39,Wunderground v.1.15,2013-04-24 03:55:00,
2013-04-23 23:00:00,38.3,33.0,30.08,NW,317,3.0,3.0,81,0.00,,,0.39,Wunderground v.1.15,2013-04-24 04:00:00,
2013-04-23 23:05:00,38.3,33.0,30.09,NNW,333,4.0,4.0,81,0.00,,,0.39,Wunderground v.1.15,2013-04-24 04:05:00,
2013-04-23 23:10:00,38.3,32.7,30.09,NW,319,5.0,5.0,80,0.00,,,0.39,Wunderground v.1.15,2013-04-24 04:10:00,
2013-04-23 23:20:00,38.2,32.6,30.09,NNW,343,3.0,4.0,80,0.00,,,0.39,Wunderground v.1.15,2013-04-24 04:20:00,
2013-04-23 23:25:00,38.1,32.5,30.09,NNW,333,4.0,4.0,80,0.00,,,0.39,Wunderground v.1.15,2013-04-24 04:25:00,
2013-04-23 23:35:00,38.1,32.5,30.09,NW,315,3.0,4.0,80,0.00,,,0.39,Wunderground v.1.15,2013-04-24 04:35:00,
2013-04-23 23:40:00,38.0,32.4,30.09,NW,323,2.0,2.0,80,0.00,,,0.39,Wunderground v.1.15,2013-04-24 04:40:00,
2013-04-23 23:45:00,38.0,32.4,30.09,NW,323,2.0,4.0,80,0.00,,,0.39,Wunderground v.1.15,2013-04-24 04:45:00,
2013-04-23 23:50:00,37.9,32.3,30.10,NNW,327,3.0,3.0,80,0.00,,,0.39,Wunderground v.1.15,2013-04-24 04:50:00,